Location: Ch�ze
(42.9000°N, 0.0333°W)
Time: 00:08:58
(UTC+00:00)

Aureole 3 Rocket - Pass Details

Date: 24 January 2021
Orbit: 398 x 1740 km, 82.5° (Epoch: 24 February)

Event Time Altitude Azimuth Distance (km) Brightness Sun altitude
Rises 17:39:56 0° 16° (NNE) 2,331 5.7 -7.1°
Reaches altitude 10° 17:43:14 10° 57° (ENE) 1,543 4.5 -7.7°
Maximum altitude 17:44:09 11° 74° (ENE) 1,522 4.4 -7.9°
Drops below altitude 10° 17:45:07 10° 90° (E) 1,615 4.6 -8.0°
Sets 17:48:55 0° 129° (SE) 2,712 6.0 -8.7°
